AFR652 LFPG-FMEE

Flight info

Callsign AFR652
Flight time N/A
Altitude 31000
Route LANVI DCT DEVDI DCT RIPUS DCT RESIA DCT LAPAB DCT LABIN DCT ELGUS DCT AIOSA DCT NOSTO/N0490F330 DCT SALUN N705 BOPIX N710 TAKRI P751 LXR M999 JDW G650 RASKA/N0501F340 G650 ULONI UG650 KONET/N0496F350 DCT XADOX DCT DWA UN304 APKAK/N0493F360 UN304 DENLI/N0493F370 UN304 UVENA UVENA2R
Aircraft B77W/H-SDE1E2E3FGHIJ2J3J4J5M1RWXY/LB1D1

Departure

Time N/A
Airport Charles de Gaulle International Airport (LFPG)

Arrival

Time 2026-04-28 21:31
Airport Roland Garros Airport (FMEE)
Time Latitude Longitude Altitude Speed Heading
2026-04-28 19:30 -7.36571 49.32027 35930 ft 479 kts 157°
2026-04-28 19:30 -7.39628 49.33352 35931 ft 479 kts 157°
2026-04-28 19:31 -7.45749 49.36004 35930 ft 479 kts 157°
2026-04-28 19:31 -7.51867 49.38655 35946 ft 478 kts 156°
2026-04-28 19:32 -7.57977 49.41304 35926 ft 477 kts 156°
2026-04-28 19:32 -7.64069 49.43949 35927 ft 476 kts 156°
2026-04-28 19:33 -7.70101 49.46567 35927 ft 475 kts 156°
2026-04-28 19:33 -7.76171 49.49201 35928 ft 474 kts 156°
2026-04-28 19:34 -7.82229 49.51831 35938 ft 474 kts 156°
2026-04-28 19:34 -7.88278 49.54457 35928 ft 473 kts 156°
2026-04-28 19:35 -7.94313 49.57081 35928 ft 472 kts 156°
2026-04-28 19:35 -8.00343 49.59703 35928 ft 472 kts 156°
2026-04-28 19:36 -8.06372 49.62323 35929 ft 472 kts 156°
2026-04-28 19:36 -8.12393 49.64941 35927 ft 471 kts 156°
2026-04-28 19:37 -8.17401 49.67119 35927 ft 471 kts 156°
2026-04-28 19:37 -8.24435 49.70180 35930 ft 471 kts 156°
2026-04-28 19:38 -8.30415 49.72784 35930 ft 471 kts 156°
2026-04-28 19:38 -8.36429 49.75403 35935 ft 471 kts 156°
2026-04-28 19:39 -8.42454 49.78027 35927 ft 471 kts 156°
2026-04-28 19:39 -8.48475 49.80651 35926 ft 471 kts 156°
2026-04-28 19:40 -8.54501 49.83278 35929 ft 472 kts 156°
2026-04-28 19:40 -8.60530 49.85907 35928 ft 472 kts 156°
2026-04-28 19:41 -8.66556 49.88536 35926 ft 472 kts 156°
2026-04-28 19:41 -8.72579 49.91164 35927 ft 472 kts 156°
2026-04-28 19:42 -8.78605 49.93794 35928 ft 471 kts 156°
2026-04-28 19:42 -8.83606 49.95978 35928 ft 471 kts 156°
2026-04-28 19:43 -8.90639 49.99051 35925 ft 471 kts 156°
2026-04-28 19:43 -8.96652 50.01678 35926 ft 471 kts 156°
2026-04-28 19:44 -9.02657 50.04303 35933 ft 470 kts 156°
2026-04-28 19:44 -9.08657 50.06927 35927 ft 469 kts 156°
2026-04-28 19:45 -9.14652 50.09550 35926 ft 469 kts 156°
2026-04-28 19:45 -9.20635 50.12168 35926 ft 468 kts 156°
2026-04-28 19:46 -9.26618 50.14788 35926 ft 468 kts 156°
2026-04-28 19:46 -9.32590 50.17403 35927 ft 468 kts 156°
2026-04-28 19:47 -9.38563 50.20020 35932 ft 467 kts 156°
2026-04-28 19:47 -9.44529 50.22635 35930 ft 467 kts 156°
2026-04-28 19:48 -9.50488 50.25248 35929 ft 467 kts 156°
2026-04-28 19:48 -9.56448 50.27862 35931 ft 466 kts 156°
2026-04-28 19:49 -9.62399 50.30474 35932 ft 466 kts 156°
2026-04-28 19:49 -9.68348 50.33085 35932 ft 466 kts 156°
2026-04-28 19:50 -9.77274 50.37006 35931 ft 466 kts 156°
2026-04-28 19:51 -9.83223 50.39620 35932 ft 466 kts 156°
2026-04-28 19:51 -9.89169 50.42234 35931 ft 466 kts 156°
2026-04-28 19:52 -9.95119 50.44851 35931 ft 466 kts 156°
2026-04-28 19:52 -10.01066 50.47467 35932 ft 466 kts 156°
2026-04-28 19:53 -10.07045 50.50096 36294 ft 468 kts 156°
2026-04-28 19:53 -10.09985 50.51389 36638 ft 465 kts 156°
2026-04-28 19:53 -10.12987 50.52710 36961 ft 464 kts 156°
2026-04-28 19:54 -10.18899 50.55312 36933 ft 466 kts 156°
2026-04-28 19:54 -10.24819 50.57919 36931 ft 461 kts 156°
2026-04-28 19:55 -10.30695 50.60509 36934 ft 460 kts 156°
2026-04-28 19:55 -10.36557 50.63093 36936 ft 459 kts 156°
2026-04-28 19:56 -10.42419 50.65678 36941 ft 459 kts 156°
2026-04-28 19:56 -10.48283 50.68265 36938 ft 460 kts 156°
2026-04-28 19:57 -10.54163 50.70861 36938 ft 461 kts 156°
2026-04-28 19:57 -10.60048 50.73459 36934 ft 462 kts 156°
2026-04-28 19:58 -10.65942 50.76063 36935 ft 462 kts 156°
2026-04-28 19:58 -10.71838 50.78669 36937 ft 462 kts 156°
2026-04-28 19:59 -10.77737 50.81276 36923 ft 462 kts 156°
2026-04-28 19:59 -10.83638 50.83886 36936 ft 462 kts 156°
2026-04-28 20:00 -10.89536 50.86496 36931 ft 462 kts 156°
2026-04-28 20:00 -10.95424 50.89103 36940 ft 462 kts 155°
2026-04-28 20:01 -11.01311 50.91710 36938 ft 461 kts 155°
2026-04-28 20:01 -11.07192 50.94316 36937 ft 461 kts 155°
2026-04-28 20:02 -11.13069 50.96921 36924 ft 460 kts 155°
2026-04-28 20:02 -11.18944 50.99526 36937 ft 460 kts 156°
2026-04-28 20:03 -11.24821 51.02133 36937 ft 461 kts 156°
2026-04-28 20:03 -11.30693 51.04740 36938 ft 461 kts 156°
2026-04-28 20:04 -11.36570 51.07349 36937 ft 461 kts 156°
2026-04-28 20:04 -11.42450 51.09962 36936 ft 461 kts 156°
2026-04-28 20:05 -11.48332 51.12576 36936 ft 461 kts 156°
2026-04-28 20:05 -11.54218 51.15193 36938 ft 461 kts 156°
2026-04-28 20:06 -11.60066 51.17795 36936 ft 462 kts 156°
2026-04-28 20:06 -11.65953 51.20415 36938 ft 462 kts 156°
2026-04-28 20:07 -11.71840 51.23036 36938 ft 462 kts 156°
2026-04-28 20:07 -11.77731 51.25661 36921 ft 462 kts 156°
2026-04-28 20:08 -11.82663 51.27859 36941 ft 462 kts 156°
2026-04-28 20:08 -11.89512 51.30913 36941 ft 462 kts 156°
2026-04-28 20:09 -11.94450 51.33116 36924 ft 462 kts 156°
2026-04-28 20:09 -12.00348 51.35749 36927 ft 462 kts 156°
2026-04-28 20:10 -12.06243 51.38382 36942 ft 462 kts 156°
2026-04-28 20:10 -12.12142 51.41017 36941 ft 463 kts 156°
2026-04-28 20:11 -12.18001 51.43635 36923 ft 463 kts 156°
2026-04-28 20:11 -12.23904 51.46273 36927 ft 463 kts 156°
2026-04-28 20:12 -12.29798 51.48910 36925 ft 463 kts 156°
2026-04-28 20:12 -12.35702 51.51552 36940 ft 463 kts 156°
2026-04-28 20:13 -12.41598 51.54193 36939 ft 463 kts 156°
2026-04-28 20:13 -12.47503 51.56839 36926 ft 463 kts 156°
2026-04-28 20:14 -12.53400 51.59482 36929 ft 463 kts 156°
2026-04-28 20:14 -12.59300 51.62128 36943 ft 463 kts 156°
2026-04-28 20:15 -12.65205 51.64778 36942 ft 463 kts 156°
2026-04-28 20:15 -12.71104 51.67426 36941 ft 463 kts 156°
2026-04-28 20:16 -12.77005 51.70077 36931 ft 463 kts 156°
2026-04-28 20:16 -12.82899 51.72726 36926 ft 463 kts 156°
2026-04-28 20:17 -12.88798 51.75378 36933 ft 463 kts 156°
2026-04-28 20:17 -12.94689 51.78029 36944 ft 463 kts 156°
2026-04-28 20:18 -13.00585 51.80683 36943 ft 463 kts 156°
2026-04-28 20:18 -13.06437 51.83318 36931 ft 462 kts 156°
2026-04-28 20:19 -13.12330 51.85974 36934 ft 462 kts 156°
2026-04-28 20:19 -13.18252 51.88644 36945 ft 462 kts 156°
2026-04-28 20:20 -13.24137 51.91298 36932 ft 462 kts 156°
2026-04-28 20:20 -13.29953 51.93923 36932 ft 462 kts 156°
2026-04-28 20:21 -13.35828 51.96577 36942 ft 462 kts 157°
2026-04-28 20:21 -13.41752 51.99253 36935 ft 462 kts 157°
2026-04-28 20:22 -13.47630 52.01910 36932 ft 462 kts 157°
2026-04-28 20:22 -13.53466 52.04549 36934 ft 461 kts 157°
2026-04-28 20:23 -13.59381 52.07226 36932 ft 461 kts 156°
2026-04-28 20:23 -13.65219 52.09870 36935 ft 461 kts 157°
2026-04-28 20:24 -13.71093 52.12532 36937 ft 461 kts 157°
2026-04-28 20:24 -13.76967 52.15196 36933 ft 461 kts 157°
2026-04-28 20:25 -13.82840 52.17860 36933 ft 461 kts 157°
2026-04-28 20:25 -13.88714 52.20527 36937 ft 461 kts 157°
2026-04-28 20:26 -13.94591 52.23196 36934 ft 462 kts 157°
2026-04-28 20:26 -14.00468 52.25867 36934 ft 462 kts 157°
2026-04-28 20:27 -14.06352 52.28542 36940 ft 462 kts 157°
2026-04-28 20:27 -14.12225 52.31214 36937 ft 462 kts 157°
2026-04-28 20:28 -14.18115 52.33895 36934 ft 462 kts 157°
2026-04-28 20:28 -14.23996 52.36574 36933 ft 462 kts 157°
2026-04-28 20:29 -14.29876 52.39254 36932 ft 462 kts 157°
2026-04-28 20:29 -14.35756 52.41935 36935 ft 462 kts 157°
2026-04-28 20:30 -14.41638 52.44618 36932 ft 462 kts 157°
2026-04-28 20:30 -14.47521 52.47304 36938 ft 462 kts 157°
2026-04-28 20:31 -14.53402 52.49990 36936 ft 462 kts 157°
2026-04-28 20:31 -14.59284 52.52678 36936 ft 463 kts 157°
2026-04-28 20:32 -14.65169 52.55370 36933 ft 462 kts 157°
2026-04-28 20:32 -14.71050 52.58061 36933 ft 462 kts 157°
2026-04-28 20:33 -14.76890 52.60735 36933 ft 462 kts 157°
2026-04-28 20:33 -14.82801 52.63443 36940 ft 462 kts 157°
2026-04-28 20:34 -14.88637 52.66118 36934 ft 462 kts 157°
2026-04-28 20:34 -14.94514 52.68814 36933 ft 462 kts 157°
2026-04-28 20:35 -15.00386 52.71509 36940 ft 462 kts 157°
2026-04-28 20:35 -15.06267 52.74209 36938 ft 462 kts 157°
2026-04-28 20:36 -15.12146 52.76911 36945 ft 462 kts 157°
2026-04-28 20:36 -15.18025 52.79614 36937 ft 463 kts 157°
2026-04-28 20:37 -15.23910 52.82321 36941 ft 463 kts 157°
2026-04-28 20:37 -15.29790 52.85029 36936 ft 463 kts 157°
2026-04-28 20:38 -15.35673 52.87738 36938 ft 463 kts 157°
2026-04-28 20:38 -15.41553 52.90449 36939 ft 463 kts 157°
2026-04-28 20:39 -15.47436 52.93162 36944 ft 463 kts 157°
2026-04-28 20:39 -15.53319 52.95877 36939 ft 463 kts 157°
2026-04-28 20:40 -15.59205 52.98595 36937 ft 463 kts 157°
2026-04-28 20:40 -15.65089 53.01314 36943 ft 463 kts 157°
2026-04-28 20:41 -15.70971 53.04034 36937 ft 463 kts 157°
2026-04-28 20:41 -15.76853 53.06755 36940 ft 463 kts 157°
2026-04-28 20:42 -15.82735 53.09478 36939 ft 463 kts 158°
2026-04-28 20:42 -15.88613 53.12201 36940 ft 462 kts 158°
2026-04-28 20:43 -15.94484 53.14923 36937 ft 462 kts 158°
2026-04-28 20:43 -16.00359 53.17648 36942 ft 462 kts 158°
2026-04-28 20:44 -16.06230 53.20374 36942 ft 462 kts 158°
2026-04-28 20:44 -16.12107 53.23103 36942 ft 463 kts 158°
2026-04-28 20:45 -16.17985 53.25835 36948 ft 463 kts 158°
2026-04-28 20:45 -16.23862 53.28569 36942 ft 463 kts 158°
2026-04-28 20:46 -16.29746 53.31308 36944 ft 463 kts 158°
2026-04-28 20:46 -16.35621 53.34044 36943 ft 463 kts 158°
2026-04-28 20:47 -16.41501 53.36784 36941 ft 463 kts 158°
2026-04-28 20:47 -16.47338 53.39500 36937 ft 462 kts 158°
2026-04-28 20:48 -16.53213 53.42235 36938 ft 462 kts 158°
2026-04-28 20:48 -16.59085 53.44973 36941 ft 463 kts 158°
2026-04-28 20:49 -16.64959 53.47713 36941 ft 463 kts 158°
2026-04-28 20:49 -16.70839 53.50458 36946 ft 463 kts 158°
2026-04-28 20:50 -16.76714 53.53203 36939 ft 463 kts 158°
2026-04-28 20:50 -16.82601 53.55955 36943 ft 464 kts 158°
2026-04-28 20:51 -16.88488 53.58709 36943 ft 464 kts 158°
2026-04-28 20:51 -16.94388 53.61471 36940 ft 464 kts 158°
2026-04-28 20:52 -17.00284 53.64234 36940 ft 465 kts 158°
2026-04-28 20:52 -17.06189 53.67002 36937 ft 465 kts 158°
2026-04-28 20:53 -17.15044 53.71157 36946 ft 465 kts 158°
2026-04-28 20:53 -17.19954 53.73462 36938 ft 465 kts 158°
2026-04-28 20:54 -17.25859 53.76237 36942 ft 465 kts 158°
2026-04-28 20:54 -17.31768 53.79016 36942 ft 465 kts 158°
2026-04-28 20:55 -17.37674 53.81795 36940 ft 465 kts 158°
2026-04-28 20:55 -17.43575 53.84573 36936 ft 465 kts 158°
2026-04-28 20:56 -17.49477 53.87355 36946 ft 465 kts 158°
2026-04-28 20:56 -17.55376 53.90136 36936 ft 465 kts 158°
2026-04-28 20:57 -17.61272 53.92919 36941 ft 465 kts 158°
2026-04-28 20:57 -17.67171 53.95704 36947 ft 465 kts 158°
2026-04-28 20:58 -17.73068 53.98491 36942 ft 465 kts 158°
2026-04-28 20:58 -17.78962 54.01279 36954 ft 465 kts 158°
2026-04-28 20:59 -17.84859 54.04070 36940 ft 465 kts 158°
2026-04-28 20:59 -17.90756 54.06863 36944 ft 465 kts 158°
2026-04-28 21:00 -17.96648 54.09656 36940 ft 465 kts 158°
2026-04-28 21:00 -18.02533 54.12448 36947 ft 464 kts 158°
2026-04-28 21:01 -18.08422 54.15244 36946 ft 465 kts 158°
2026-04-28 21:01 -18.14316 54.18037 36944 ft 465 kts 158°
2026-04-28 21:02 -18.20216 54.20827 36946 ft 465 kts 158°
2026-04-28 21:02 -18.26076 54.23600 36944 ft 465 kts 158°
2026-04-28 21:03 -18.31972 54.26395 36941 ft 465 kts 158°
2026-04-28 21:03 -18.37912 54.29213 36946 ft 465 kts 158°
2026-04-28 21:04 -18.43766 54.31993 36943 ft 465 kts 158°
2026-04-28 21:04 -18.49669 54.34798 36943 ft 465 kts 158°
2026-04-28 21:05 -18.55341 54.37496 36939 ft 465 kts 158°
2026-04-28 21:05 -18.61312 54.40324 36948 ft 465 kts 159°
2026-04-28 21:06 -18.67304 54.42805 36944 ft 464 kts 162°
2026-04-28 21:06 -18.73360 54.45149 36950 ft 464 kts 162°
2026-04-28 21:07 -18.79410 54.47517 36949 ft 464 kts 161°
2026-04-28 21:07 -18.85457 54.49922 36963 ft 464 kts 161°
2026-04-28 21:08 -18.91494 54.52340 36947 ft 464 kts 161°
2026-04-28 21:08 -18.97527 54.54759 36950 ft 464 kts 161°
2026-04-28 21:09 -19.03566 54.57182 36954 ft 464 kts 161°
2026-04-28 21:09 -19.09600 54.59603 36946 ft 464 kts 161°
2026-04-28 21:10 -19.15633 54.62026 36944 ft 464 kts 161°
2026-04-28 21:10 -19.18652 54.63239 36782 ft 464 kts 161°
2026-04-28 21:10 -19.21685 54.64457 35997 ft 468 kts 161°
2026-04-28 21:11 -19.24703 54.65671 35554 ft 460 kts 161°
2026-04-28 21:11 -19.27684 54.66871 35045 ft 456 kts 161°
2026-04-28 21:11 -19.30634 54.68059 34532 ft 452 kts 160°
2026-04-28 21:11 -19.33562 54.69238 34039 ft 448 kts 160°
2026-04-28 21:12 -19.36466 54.70408 33436 ft 446 kts 160°
2026-04-28 21:12 -19.39361 54.71574 32842 ft 443 kts 160°
2026-04-28 21:12 -19.42236 54.72733 32264 ft 441 kts 160°
2026-04-28 21:12 -19.45094 54.73885 31688 ft 438 kts 160°
2026-04-28 21:13 -19.47933 54.75030 31118 ft 435 kts 160°
2026-04-28 21:13 -19.50754 54.76168 30586 ft 432 kts 160°
2026-04-28 21:13 -19.53551 54.77298 30052 ft 429 kts 160°
2026-04-28 21:13 -19.56334 54.78422 29411 ft 426 kts 160°
2026-04-28 21:14 -19.59092 54.79536 28782 ft 423 kts 160°
2026-04-28 21:14 -19.61832 54.80643 28169 ft 420 kts 160°
2026-04-28 21:14 -19.64556 54.81744 27565 ft 418 kts 160°
2026-04-28 21:14 -19.67227 54.82825 26990 ft 415 kts 160°
2026-04-28 21:15 -19.69956 54.83928 26407 ft 413 kts 160°
2026-04-28 21:15 -19.72600 54.84999 25856 ft 411 kts 160°
2026-04-28 21:15 -19.75268 54.86079 25301 ft 410 kts 160°
2026-04-28 21:15 -19.77924 54.87154 24763 ft 408 kts 160°
2026-04-28 21:16 -19.80576 54.88228 24236 ft 407 kts 160°
2026-04-28 21:16 -19.83218 54.89299 23717 ft 406 kts 160°
2026-04-28 21:16 -19.85857 54.90369 23132 ft 405 kts 160°
2026-04-28 21:16 -19.88491 54.91437 22517 ft 404 kts 160°
2026-04-28 21:17 -19.91118 54.92502 21916 ft 404 kts 160°
2026-04-28 21:17 -19.93735 54.93564 21321 ft 403 kts 160°
2026-04-28 21:17 -19.96355 54.94627 20750 ft 402 kts 160°
2026-04-28 21:17 -19.98962 54.95687 20185 ft 401 kts 160°
2026-04-28 21:18 -20.01565 54.96744 19630 ft 400 kts 160°
2026-04-28 21:18 -20.04166 54.97801 19086 ft 399 kts 160°
2026-04-28 21:18 -20.06754 54.98853 18553 ft 398 kts 160°
2026-04-28 21:18 -20.09343 54.99907 17980 ft 397 kts 160°
2026-04-28 21:19 -20.11922 55.00956 17368 ft 396 kts 160°
2026-04-28 21:19 -20.14497 55.02004 16787 ft 395 kts 160°
2026-04-28 21:19 -20.17057 55.03047 16201 ft 394 kts 159°
2026-04-28 21:19 -20.19613 55.04088 15621 ft 392 kts 159°
2026-04-28 21:20 -20.22159 55.05125 15059 ft 391 kts 159°
2026-04-28 21:20 -20.24695 55.06158 14499 ft 390 kts 159°
2026-04-28 21:20 -20.27221 55.07188 13956 ft 388 kts 159°
2026-04-28 21:20 -20.29741 55.08216 13373 ft 387 kts 159°
2026-04-28 21:21 -20.32246 55.09238 12779 ft 385 kts 159°
2026-04-28 21:21 -20.34748 55.10259 12187 ft 384 kts 159°
2026-04-28 21:21 -20.37236 55.11275 11613 ft 383 kts 159°
2026-04-28 21:21 -20.39718 55.12289 11045 ft 381 kts 159°
2026-04-28 21:22 -20.42190 55.13299 10496 ft 380 kts 159°
2026-04-28 21:22 -20.44650 55.14304 9940 ft 378 kts 159°
2026-04-28 21:22 -20.47102 55.15307 9347 ft 377 kts 159°
2026-04-28 21:22 -20.48723 55.15970 8968 ft 376 kts 159°
2026-04-28 21:23 -20.51966 55.17296 8301 ft 371 kts 159°
2026-04-28 21:23 -20.54322 55.18261 7863 ft 366 kts 159°
2026-04-28 21:23 -20.56687 55.19229 7457 ft 361 kts 159°
2026-04-28 21:23 -20.59016 55.20183 7053 ft 357 kts 159°
2026-04-28 21:24 -20.61319 55.21126 6655 ft 352 kts 158°
2026-04-28 21:24 -20.63597 55.22060 6250 ft 349 kts 158°
2026-04-28 21:24 -20.65846 55.22982 5880 ft 344 kts 158°
2026-04-28 21:24 -20.68061 55.23891 5504 ft 339 kts 158°
2026-04-28 21:25 -20.70252 55.24790 5143 ft 335 kts 158°
2026-04-28 21:25 -20.72414 55.25676 4784 ft 332 kts 157°
2026-04-28 21:25 -20.74557 55.26556 4414 ft 328 kts 157°
2026-04-28 21:25 -20.76663 55.27431 4076 ft 318 kts 155°
2026-04-28 21:26 -20.78449 55.28702 3778 ft 305 kts 131°
2026-04-28 21:26 -20.79509 55.30600 3614 ft 291 kts 108°
2026-04-28 21:26 -20.80127 55.32567 3558 ft 271 kts 109°
2026-04-28 21:26 -20.80896 55.34341 3203 ft 254 kts 115°
2026-04-28 21:27 -20.81666 55.35934 2867 ft 228 kts 115°
2026-04-28 21:27 -20.82356 55.37396 2607 ft 213 kts 115°
2026-04-28 21:27 -20.82993 55.38765 2388 ft 195 kts 114°
2026-04-28 21:27 -20.83583 55.39997 2216 ft 182 kts 114°
2026-04-28 21:28 -20.84131 55.41148 1942 ft 163 kts 114°
2026-04-28 21:28 -20.84598 55.42186 1720 ft 152 kts 113°
2026-04-28 21:28 -20.85048 55.43190 1478 ft 147 kts 113°
2026-04-28 21:28 -20.85501 55.44171 1316 ft 146 kts 114°
2026-04-28 21:29 -20.85952 55.45139 1119 ft 144 kts 115°
2026-04-28 21:29 -20.86379 55.46080 953 ft 140 kts 114°
2026-04-28 21:29 -20.86825 55.47029 769 ft 146 kts 117°
2026-04-28 21:29 -20.87281 55.48026 575 ft 151 kts 118°
2026-04-28 21:30 -20.87751 55.49021 423 ft 150 kts 118°
2026-04-28 21:30 -20.88220 55.50005 202 ft 147 kts 120°
2026-04-28 21:30 -20.88672 55.50955 60 ft 140 kts 120°
2026-04-28 21:30 -20.89051 55.51762 63 ft 97 kts 117°
2026-04-28 21:31 -20.89267 55.52209 65 ft 32 kts 133°
2026-04-28 21:31 -20.89367 55.52193 89 ft 15 kts 208°
2026-04-28 21:31 -20.89406 55.52117 93 ft 12 kts 289°
2026-04-28 21:31 -20.89365 55.52040 91 ft 12 kts 298°
2026-04-28 21:32 -20.89328 55.51960 94 ft 12 kts 296°
2026-04-28 21:32 -20.89288 55.51875 92 ft 13 kts 297°
2026-04-28 21:32 -20.89248 55.51789 92 ft 13 kts 296°
2026-04-28 21:32 -20.89208 55.51703 90 ft 13 kts 296°
2026-04-28 21:33 -20.89168 55.51618 91 ft 13 kts 296°
2026-04-28 21:33 -20.89126 55.51529 88 ft 15 kts 297°
2026-04-28 21:33 -20.89071 55.51414 84 ft 18 kts 297°
2026-04-28 21:33 -20.89021 55.51304 84 ft 15 kts 296°
2026-04-28 21:34 -20.88986 55.51228 84 ft 6 kts 296°
2026-04-28 21:34 -20.88996 55.51200 84 ft 4 kts 216°
2026-04-28 21:34 -20.89020 55.51185 83 ft 3 kts 209°
2026-04-28 21:34 -20.89034 55.51177 84 ft 2 kts 207°
2026-04-28 21:35 -20.89040 55.51174 85 ft 0 kts 207°
2026-04-28 21:35 -20.89042 55.51173 85 ft 1 kts 207°
2026-04-28 21:35 -20.89045 55.51171 85 ft 0 kts 207°
2026-04-28 21:35 -20.89046 55.51171 85 ft 0 kts 207°
2026-04-28 21:36 -20.89047 55.51170 85 ft 0 kts 207°
2026-04-28 21:36 -20.89048 55.51170 85 ft 0 kts 207°